Tracking 27405 objects as of 2-Jun-2023
HD Live streaming from Space Station
objects crossing your sky now

ONEWEB-0300

Track ONEWEB-0300 now!
10-day predictions
ONEWEB-0300 is classified as:


NORAD ID: 49089
Int'l Code: 2021-075Q
Perigee: 1,219.1 km
Apogee: 1,222.7 km
Inclination: 87.9 °
Period: 109.7 minutes
Semi major axis: 7591 km
RCS: Unknown
Launch date: August 21, 2021
Source: United Kingdom (UK)
Launch site: TYURATAM MISSILE AND SPACE COMPLEX (TTMTR)
Your satellite tracking list
Your tracking list is empty




NASA's NSSDC Master Catalog

Two Line Element Set (TLE):
1 49089U 21075Q   23152.87076843 -.00000185  00000-0 -55014-3 0  9995
2 49089  87.9025 211.4847 0002397 100.4049 259.7350 13.12441083 90422
Source of the keplerian elements: AFSPC